Location: *
(30.4476°N, 114.3798°E)
Time: 08:57:39
(UTC+00:00)

Daily predictions for brighter satellites

Satellite Brightness Start Highest point End
(mag) Time Altitude Azimuth Time Altitude Azimuth Time Altitude Azimuth
APEX 4.5 12:00:32 10° N 12:06:06 42° ENE 12:07:43 32° ESE
Cosmos 2369 Rocket 3.3 12:03:01 10° NW 12:08:20 44° WSW 12:13:36 10° S
GPS 2-04 Rocket1 2.6 12:05:11 10° WSW 12:09:10 77° SSE 12:10:33 40° E
Cosmos 2184 Rocket 4.2 12:08:13 10° N 12:14:27 74° W 12:20:35 10° S
Meteor 2-17 Rocket 4.4 12:09:29 10° N 12:15:37 68° E 12:20:02 20° SSE
SL-24 R/B 3.5 12:12:33 10° NNE 12:16:19 86° ESE 12:19:20 14° S
SJ-6B 2.8 12:16:44 39° SSE 12:18:12 78° ENE 12:22:20 10° N
STPSAT 2 (USA 217) 4.4 12:15:48 10° S 12:20:13 65° ESE 12:24:40 10° NNE
Nadezhda 1 Rocket 4.5 12:15:35 10° SSW 12:21:54 63° W 12:28:12 10° N
Cosmos 1300 3.2 12:23:50 44° NE 12:23:50 44° NE 12:26:41 10° NNE
MOS 1 4.3 12:18:09 15° SSE 12:22:56 83° WSW 12:28:37 10° NNW
SL-08 RB Rocket 3.6 12:23:53 44° SSE 12:25:18 77° ENE 12:29:53 10° N
Cosmos 2058 Rocket 3.6 12:21:28 10° SSW 12:25:55 61° W 12:30:22 10° N
CZ-2C R/B 3.9 12:21:27 10° N 12:26:06 73° WNW 12:30:36 10° SSW
DMSP B5D2-2 3.9 12:21:44 10° NNE 12:26:58 78° ESE 12:32:13 10° S
Cosmos 676 Rocket 4.3 12:23:14 10° SSW 12:28:29 69° WNW 12:33:45 10° N
MetOp-A 4.2 12:28:07 47° ESE 12:29:17 58° ENE 12:34:32 10° N
NOSS 3-4 (A) 4.0 12:22:14 10° NNW 12:29:29 64° ENE 12:32:36 38° SE
NOSS 3-4 (C) 4.0 12:22:21 10° NNW 12:29:36 64° ENE 12:32:40 38° SE
Cosmos 2181 Rocket 4.1 12:29:14 37° SE 12:31:21 53° E 12:37:21 10° NNE
Cosmos 1656 Rocket 4.0 12:26:23 10° NNW 12:31:54 63° WSW 12:35:06 25° S
Cosmos 962 Rocket 4.4 12:28:03 10° N 12:34:04 57° E 12:35:20 48° SE
Cosmos 2154 Rocket 4.1 12:31:07 10° N 12:37:26 77° W 12:42:10 19° S
ARGOS 3.7 12:35:01 16° S 12:39:13 56° W 12:44:30 10° NNW
Hubble Space Telescope 1.2 12:35:55 10° W 12:39:17 54° SW 12:39:17 54° SW
SPOT 3 Rocket 3.4 12:40:08 59° SSE 12:41:09 83° ENE 12:46:22 10° N
CZ-2C R/B 2.5 12:37:10 10° NNE 12:42:23 88° WNW 12:45:56 21° SSW
Cosmos 1461 3.4 12:38:19 10° NNW 12:42:20 55° NNE 12:42:20 55° NNE
Cosmos 921 Rocket 3.6 12:39:22 10° N 12:42:24 44° NNE 12:42:24 44° NNE
GEOS 3 Rocket 3.8 12:42:53 45° S 12:44:16 64° WSW 12:49:25 10° NW
SEDSat Delta rocket 4.2 12:40:36 10° W 12:45:12 34° SSW 12:45:12 34° SSW
Resurs 01 Rocket 2.8 12:47:29 31° NNE 12:47:29 31° NNE 12:50:04 10° N
MOS 1 Rocket 3.9 12:44:27 10° N 12:49:53 70° WNW 12:54:41 13° SSW
USA 234 3.2 12:47:46 10° NE 12:54:19 88° NW 13:00:52 10° SW
ATLAS 2AS CENTAUR R/B 2.8 12:54:20 10° NNW 13:01:35 72° WSW 13:03:07 55° S
BREEZE-M DEB 4.4 12:58:28 10° NW 13:12:12 60° SW 13:12:53 56° SSW
H-2A R/B 4.5 13:13:00 10° SW 13:16:25 18° W 13:19:50 10° NW
COSMOS 2455 3.1 13:16:09 10° NNW 13:21:15 65° NW 13:21:15 65° NW
Cosmos 2297 Rocket 4.3 19:01:46 18° N 19:01:46 18° N 19:03:24 10° N
ATLAS 3B R/B 3.2 19:00:33 52° ENE 19:00:33 52° ENE 19:05:46 10° NE
USA 267 3.5 19:02:40 10° NE 19:08:02 61° NNE 19:08:02 61° NNE
ADEOS II 4.1 19:10:11 10° N 19:11:50 20° N 19:11:50 20° N
Meteor 2-4 Rocket 4.4 19:16:04 55° ENE 19:16:04 55° ENE 19:21:09 10° NNE
ARIANE 5 R/B 4.1 19:17:14 10° N 19:19:40 28° N 19:19:40 28° N
Cosmos 2227 Rocket 4.2 19:28:03 17° NNW 19:28:03 17° NNW 19:29:45 10° N
IDEFIX/ARIANE 42P 3.3 19:20:48 10° NNE 19:25:14 50° ENE 19:25:14 50° ENE
Cosmos 1674 Rocket 4.3 19:48:11 49° E 19:48:12 49° E 19:52:26 10° NNE
Timation 1 Rocket 4.5 19:47:47 56° SSE 19:48:55 70° ESE 19:54:54 10° NNE
Cosmos 494 Rocket 4.1 19:44:05 10° NNW 19:49:22 74° ENE 19:51:23 38° SSE
BREEZE-M DEB (TANK) 4.4 19:47:59 59° WSW 19:49:32 85° NW 20:12:32 10° NE
CENTAUR R/B 3.6 19:51:15 27° NW 19:51:15 27° NW 19:56:19 10° N
COBE Rocket 3.8 19:55:36 66° SE 19:56:12 77° ENE 20:00:53 10° N
deb Chang Zheng 4 4.1 19:52:47 10° N 19:56:07 52° N 19:56:07 52° N
Meteor 1-4 Rocket 4.2 20:03:39 28° N 20:03:39 28° N 20:05:32 10° N
MSX 3.7 19:59:54 10° NNE 20:05:42 89° ESE 20:07:55 40° SSW
Cosmos 1818 4.1 20:01:33 10° NNW 20:06:55 58° ENE 20:12:14 10° SE
SL-16 R/B 2.0 20:03:05 10° NNW 20:08:43 67° WSW 20:14:19 10° S
Cosmos 1092 Rocket 4.1 20:05:02 20° S 20:09:32 79° E 20:15:52 10° N
Cosmos 1867 3.9 20:13:39 46° WNW 20:14:00 46° WNW 20:19:14 10° NNE
Cosmos 1300 Rocket 3.4 20:11:08 10° N 20:15:09 67° WNW 20:15:09 67° WNW
Meteor 1-13 Rocket 4.3 20:16:01 48° WSW 20:17:04 55° W 20:22:37 10° N
Cosmos 2026 Rocket 4.3 20:12:23 10° S 20:18:24 65° E 20:24:24 10° NNE
Gbstr 26 Del rocket 4.1 20:16:53 41° W 20:18:39 53° NW 20:24:06 10° NNE
Cosmos 1269 Rocket 3.9 20:15:22 10° NNW 20:20:41 81° WSW 20:25:58 10° S
Nadezhda 4 Rocket 4.2 20:20:01 40° WSW 20:21:31 48° W 20:27:37 10° N
Cosmos 1378 Rocket 3.4 20:24:23 46° SSW 20:25:36 76° W 20:29:58 10° N
Lacrosse 5 3.8 20:21:41 10° S 20:25:48 25° ESE 20:29:54 10° ENE
Geosat 3.9 20:21:20 10° NNE 20:26:21 79° WNW 20:28:35 34° SSW
PSLV R/B 3.5 20:22:26 10° N 20:26:46 61° WNW 20:27:40 49° SW
ATLAS 5 CENTAUR R/B 3.4 20:22:16 10° NNW 20:28:16 53° ENE 20:35:01 10° SE
Palapa 6 Rocket 4.0 20:30:47 25° S 20:30:47 25° S 20:33:46 10° SE
Cosmos 2263 Rocket 2.3 20:28:32 36° SW 20:30:39 58° WNW 20:36:16 10° N
Shenzhou-11 Module 3.7 20:32:22 20° N 20:32:22 20° N 20:33:48 10° NNE
Cosmos 1378 4.3 20:28:22 10° SSE 20:31:54 43° E 20:35:26 10° NNE
Okean 2 Rocket 4.1 20:29:13 10° NNW 20:32:11 29° WNW 20:32:11 29° WNW
Cosmos 2151 Rocket 3.7 20:30:57 10° NNW 20:35:11 48° W 20:36:42 33° SW
Lacrosse 4 Rocket 4.3 20:33:31 10° SE 20:35:59 15° ESE 20:38:28 10° ENE
Meteor 1-23 Rocket 4.2 20:31:29 17° SSW 20:36:00 73° W 20:41:47 10° N
CZ-2C R/B 2.1 20:34:57 10° N 20:39:31 79° WNW 20:43:16 15° SSW
Okean 2 4.3 20:40:50 10° SSE 20:44:48 50° E 20:48:47 10° NNE
STARLINK-1150 4.0 20:43:54 23° SSW 20:45:50 50° SE 20:49:22 10° NE
ATLAS 5 CENTAUR R/B 3.0 20:45:04 26° WSW 20:47:02 34° WNW 20:49:50 10° N
Meteor 1-15 Rocket 4.2 20:43:10 10° N 20:48:49 87° E 20:54:32 10° S
Cosmos 1484 Rocket 4.0 20:46:21 10° NNE 20:49:53 40° E 20:53:23 10° S
H-2A R/B 3.8 20:46:17 10° NNE 20:49:57 37° E 20:53:32 10° SSE
ATLAS 3B R/B 4.0 20:47:49 17° WNW 20:50:17 21° NW 20:55:12 10° N
STARLINK-1151 3.7 20:51:00 21° SSW 20:53:08 55° SE 20:56:35 10° NE
STARLINK-1133 3.6 20:52:44 20° SSW 20:54:57 58° SE 20:58:26 10° NE
Cosmos 1805 4.5 20:52:32 10° N 20:56:15 44° E 20:59:57 10° SSE
STARLINK-1139 3.5 20:54:31 20° SSW 20:56:47 62° SE 21:00:17 10° NE
Chandra Rocket (1) 3.8 20:44:01 17° W 20:58:17 79° S 21:03:23 10° E
STARLINK-1174 3.4 20:56:18 19° SSW 20:58:39 66° SE 21:02:09 10° NE
CZ-4B R/B 3.7 20:54:55 10° NNE 20:58:42 81° ESE 21:02:20 10° S
CZ-4B R/B 2.5 21:01:20 23° WSW 21:01:55 24° W 21:04:48 10° NW
STARLINK-1180 3.3 20:59:56 18° SW 21:02:25 74° SE 21:05:57 10° NE
STARLINK-1170 3.3 21:01:01 18° SW 21:03:43 87° SE 21:07:29 10° NE
Cosmos 1655 Rocket 4.4 20:57:40 10° S 21:03:58 68° E 21:10:15 10° NNE
STARLINK-1153 3.2 21:01:46 17° SW 21:04:20 78° SE 21:07:53 10° NE
IDEFIX/ARIANE 42P 4.2 21:02:17 10° NW 21:04:58 14° WNW 21:06:03 13° W
PSLV R/B 4.2 21:02:01 10° SSE 21:06:13 76° ENE 21:10:24 10° N
STARLINK-1132 3.2 21:04:50 17° SW 21:07:35 88° NW 21:11:17 10° NE
Aureole 3 Rocket 3.3 21:04:32 10° N 21:08:04 52° E 21:11:03 10° SSE
STARLINK-1177 3.2 21:08:06 16° SW 21:11:00 80° NW 21:14:41 10° NE
Cosmos 1975 Rocket 3.0 21:07:06 10° SSW 21:11:24 69° W 21:15:46 10° N
SeaSat 1 3.4 21:07:24 10° SE 21:12:10 52° ENE 21:16:57 10° NNW
STARLINK-1167 3.3 21:11:01 15° SW 21:14:01 73° NW 21:17:42 10° NE
Okean 1 Rocket 3.5 21:10:53 10° NNW 21:14:58 39° W 21:19:05 10° SSW
Cosmos 1437 Rocket 3.6 21:11:46 10° SW 21:15:25 32° W 21:19:06 10° NNW
STARLINK-1168 3.2 21:13:23 14° SW 21:16:24 73° NW 21:19:57 10° NE
CZ-4B R/B 3.1 21:13:55 10° N 21:18:22 78° WNW 21:22:52 10° SSW
STARLINK-1164 3.2 21:15:17 13° SW 21:18:23 69° NW 21:21:56 10° NE
Cosmos 1689 Rocket 3.1 21:17:05 10° SSW 21:19:37 25° W 21:22:09 10° NW
STARLINK-1182 3.2 21:17:12 12° SW 21:20:23 65° NW 21:23:55 10° NE
USA 234 4.1 21:14:44 10° ESE 21:21:03 55° NE 21:27:23 10° NNW
Delta 142 4.1 21:15:50 12° W 21:21:30 62° S 21:26:11 10° ESE
STARLINK-1172 3.4 21:21:19 11° SW 21:24:41 58° NW 21:28:12 10° NE
STARLINK-1163 3.6 21:21:42 11° WSW 21:25:08 53° NW 21:28:47 10° NNE
STARLINK-1149 3.6 21:21:54 11° WSW 21:25:28 54° NW 21:29:12 10° NNE
Cosmos 1943 3.2 21:20:01 10° NNW 21:25:43 73° WSW 21:31:22 10° S
COSMO-SKYMED 1 4.0 21:22:00 10° SSE 21:26:07 44° ENE 21:30:15 10° N
STARLINK-1145 3.4 21:23:18 10° SW 21:26:44 54° NW 21:30:15 10° NNE
Meteor PRIRODA 3.6 21:23:52 10° N 21:27:33 77° WNW 21:31:14 10° SSW
Cosmos 1844 4.2 21:23:18 10° S 21:28:44 63° ESE 21:34:14 10° NNE
STARLINK-1161 3.5 21:25:20 10° WSW 21:28:48 52° NW 21:32:19 10° NNE
FENGYUN 3A 3.7 21:25:12 10° NNE 21:30:36 87° WNW 21:35:58 10° SSW
STARLINK-1160 3.6 21:27:26 10° WSW 21:30:54 49° NW 21:34:23 10° NNE
ALOS 2.3 21:30:53 10° N 21:35:32 71° WNW 21:40:10 10° SSW
Meteor 1-31 Rocket 3.7 21:32:57 10° NNW 21:36:21 29° WNW 21:39:43 10° SW
STARLINK-1179 4.3 21:35:14 10° W 21:37:51 25° NW 21:40:30 10° NNE
STARLINK-1176 4.3 21:35:43 10° W 21:38:20 24° NW 21:40:57 10° NNE
GP-B 3.6 21:34:39 10° N 21:39:05 68° E 21:43:28 10° S
Cosmos 1025 Rocket 3.4 21:36:50 10° S 21:41:12 72° E 21:45:33 10° N
